CAPE
0 0 0 0 0 0 1 1 1 0 0 0 6 102 0 0 0 0 0 0 0 0 0 0 0 0 0 0 0 0 0 0 0 0 0 0 0 0 0 0 0 0 0
0 0 0 0 0 1 1 1 1 3 0 0 2 56 0 0 1 0 0 1 2 0 0 0 0 0 0 0 0 0 0 0 0 0 0 0 0 0 0 0 0 0 0
4 0 0 0 2 1 0 0 0 0 2 1 1 196 0 0 0 0 0 0 0 0 0 0 0 0 0 0 0 0 0 0 0 0 0 0 0 0 0 0 0 0 0
4 0 0 0 2 2 2 0 2 1 0 5 1 117 3 0 0 1 1 1 0 0 0 0 0 0 0 0 0 0 0 0 0 0 0 0 0 0 0 0 0 0 0
4 5 0 0 6 5 9 6 5 0 2 6 3 12 0 1 1 1 0 1 0 0 0 0 0 0 0 0 0 0 0 0 0 0 0 0 0 0 0 0 0 0 0
2 6 0 5 10 9 7 11 2 2 0 8 9 2 0 1 0 0 0 0 0 0 0 0 0 0 0 0 0 0 0 0 0 0 0 0 0 0 0 0 0 0 0
10 8 2 1 10 7 11 10 3 1 1 11 15 0 1 0 0 0 0 0 0 0 0 0 0 0 0 0 0 0 0 0 0 0 0 0 0 0 0 0 0 0 0
4 8 5 14 7 7 7 6 1 0 0 3 9 0 0 0 0 0 0 0 0 0 0 0 0 0 0 0 0 0 0 0 0 0 0 0 0 0 0 0 0 0 0
2 6 6 7 8 6 3 6 5 3 1 1 1 1 1 4 0 0 0 0 0 0 0 0 0 0 0 0 0 0 0 0 0 0 0 0 0 0 0 0 0 0 0
0 0 8 5 4 3 3 4 15 9 6 6 3 5 4 0 2 0 0 0 0 0 0 0 0 0 0 0 0 0 0 0 0 0 0 0 0 0 0 0 0 0 0
0 0 1 3 3 1 1 4 6 17 11 10 7 2 2 1 3 1 0 0 1 2 3 2 0 0 0 0 0 0 0 0 0 0 0 0 0 0 0 0 0 0 0
0 0 0 4 3 5 0 1 1 1 1 0 0 1 3 5 4 2 1 0 0 0 2 1 0 0 0 0 0 0 0 0 0 0 0 0 0 0 0 0 0 0 0
0 0 0 0 1 6 1 0 0 0 0 0 0 0 0 2 3 2 2 1 1 1 1 0 0 0 0 0 0 0 0 0 0 0 0 0 0 0 0 1 0 0 0
0 0 0 0 7 2 2 3 2 0 0 0 0 0 0 1 3 0 0 0 0 0 0 0 0 0 0 0 0 0 0 0 0 0 0 0 0 0 0 0 0 0 0
0 0 0 0 0 3 3 4 6 5 3 1 2 2 1 1 0 0 0 0 0 0 0 0 0 0 0 0 0 0 0 0 0 0 0 0 0 0 0 0 0 0 0
0 0 0 0 0 0 0 0 0 0 0 0 0 0 0 0 0 0 0 0 0 0 0 0 0 0 0 0 0 0 0 0 0 0 0 0 0 0 0 0 0 0 0
0 0 0 0 0 0 0 0 0 0 0 0 0 0 0 0 0 0 0 0 0 0 0 0 0 0 0 0 0 0 0 0 0 0 0 0 0 0 0 0 0 1 4
0 0 0 0 0 0 0 0 0 0 0 0 0 0 0 0 0 0 0 0 0 0 0 0 0 0 0 0 0 0 0 0 0 0 0 0 0 0 0 2 2 6 9
0 0 0 0 0 0 0 0 0 0 0 0 0 0 0 0 0 0 0 0 0 0 0 2 3 4 2 1 0 0 0 0 0 0 0 0 0 4 4 3 2 0 1
0 0 0 0 0 0 0 0 0 0 0 0 0 0 0 0 0 0 0 0 0 2 1 5 6 3 2 1 0 1 0 2 2 0 0 0 0 5 7 7 5 7 5
0 0 0 0 0 0 0 0 0 0 0 0 0 0 0 0 0 0 0 0 0 0 0 0 5 8 8 8 6 7 7 7 3 4 6 5 4 10 5 8 13 11 2
0 0 0 0 0 0 0 0 0 0 0 0 0 0 0 0 0 0 1 0 0 0 0 0 10 7 4 8 13 9 7 7 12 15 12 9 2 12 13 9 11 11 8
0 0 0 0 0 0 0 0 0 0 0 0 0 0 0 0 0 0 0 0 0 0 0 10 1 0 1 11 7 10 11 10 17 11 14 12 10 0 0 3 3 9 10
0 0 0 0 0 0 0 0 0 0 0 0 0 0 0 0 1 0 0 0 0 0 5 8 10 7 5 8 10 10 8 9 11 12 9 9 14 0 5 19 20 15 6
0 0 0 0 0 0 0 4 0 0 0 0 0 0 0 0 0 0 0 0 0 3 5 3 1 1 6 10 8 9 4 0 0 0 6 12 10 15 6 4 11 5 3
0 0 0 0 0 0 0 0 0 0 0 0 0 0 0 0 0 0 0 0 0 2 2 3 6 3 1 2 5 2 0 0 1 0 3 16 15 5 4 4 2 3 0
CIN
-0 -0 -0 -0 -0 -0 -0 -1 -1 -0 -0 -0 -0 -300 -0 -0 -0 -0 -0 -0 -0 -0 -0 -0 -0 -0 -0 -0 -0 -0 -0 -0 -0 -0 -0 -0 -0 -0 -0 -0 -0 -0 -0
-0 -0 -0 -0 -0 -1 -0 -0 -0 -0 -0 -0 -0 -299 -0 -0 -0 -0 -0 -0 -0 -0 -0 -0 -0 -0 -0 -0 -0 -0 -0 -0 -0 -0 -0 -0 -0 -0 -0 -0 -0 -0 -0
-0 -0 -0 -0 -0 -0 -1 -0 -1 -1 -0 -0 -0 -170 -0 -0 -0 -0 -0 -0 -0 -0 -0 -0 -0 -0 -0 -0 -0 -0 -0 -0 -0 -0 -0 -0 -0 -0 -0 -0 -0 -0 -0
-0 -0 -0 -0 -0 -0 -0 -0 -0 -0 -0 -0 -0 -206 -66 -0 -0 -0 -0 -1 -0 -0 -0 -0 -0 -0 -0 -0 -0 -0 -0 -0 -0 -0 -0 -0 -0 -0 -0 -0 -0 -0 -0
-0 -0 -0 -0 -0 -0 -0 -0 -1 -0 -0 -0 -0 -1 -0 -0 -0 -0 -1 -0 -0 -0 -0 -0 -0 -0 -0 -0 -0 -0 -0 -0 -0 -0 -0 -0 -0 -0 -0 -0 -0 -0 -0
-0 -0 -0 -0 -0 -0 -0 -0 -0 -0 -0 -0 -0 -0 -0 -0 -0 -0 -0 -0 -0 -0 -0 -0 -0 -0 -0 -0 -0 -0 -0 -0 -0 -0 -0 -0 -0 -0 -0 -0 -0 -0 -0
-0 -0 -0 -0 -0 -0 -0 -0 -0 -0 -0 -0 -0 -0 -0 -0 -0 -0 -0 -0 -0 -0 -0 -0 -0 -0 -0 -0 -0 -0 -0 -0 -0 -0 -0 -0 -0 -0 -0 -0 -0 -0 -0
-0 -0 -0 -0 -0 -0 -0 -0 -0 -0 -0 -0 -1 -0 -0 -0 -0 -0 -0 -0 -0 -0 -0 -0 -0 -0 -0 -0 -0 -0 -0 -0 -0 -0 -0 -0 -0 -0 -0 -0 -0 -0 -0
-1 -0 -0 -0 -0 -0 -0 -0 -0 -0 -0 -0 -0 -0 -0 -0 -0 -0 -0 -0 -0 -0 -0 -0 -0 -0 -0 -0 -0 -0 -0 -0 -0 -0 -0 -0 -0 -0 -0 -0 -0 -0 -0
-0 -0 -0 -0 -0 -0 -0 -0 -0 -0 -0 -0 -0 -0 -0 -0 -0 -0 -0 -0 -0 -0 -0 -0 -0 -0 -0 -0 -0 -0 -0 -0 -0 -0 -0 -0 -0 -0 -0 -0 -0 -0 -0
-0 -0 -3 -1 -0 -0 -0 -0 -0 -0 -0 -0 -0 -0 -0 -0 -0 -0 -0 -0 -0 -0 -0 -0 -0 -0 -0 -0 -0 -0 -0 -0 -0 -0 -0 -0 -0 -0 -0 -0 -0 -0 -0
-0 -0 -0 -1 -0 -0 -0 -0 -0 -0 -0 -0 -0 -0 -0 -0 -0 -0 -0 -0 -0 -0 -0 -0 -0 -0 -0 -0 -0 -0 -0 -0 -0 -0 -0 -0 -0 -0 -0 -0 -0 -0 -0
-0 -0 -0 -0 -1 -0 -0 -0 -0 -0 -0 -0 -0 -0 -0 -0 -0 -0 -0 -0 -0 -0 -0 -0 -0 -0 -0 -0 -0 -0 -0 -0 -0 -0 -0 -0 -0 -24 -6 -27 -10 -0 -0
-0 -0 -0 -0 -0 -0 -0 -0 -0 -0 -0 -0 -0 -0 -0 -0 -0 -0 -0 -0 -0 -0 -0 -0 -0 -0 -0 -0 -0 -0 -0 -0 -0 -0 -0 -0 -0 -0 -0 -0 -0 -0 -0
-0 -0 -0 -0 -0 -0 -0 -0 -0 -0 -0 -0 -0 -0 -0 -0 -0 -0 -0 -0 -0 -0 -0 -0 -0 -0 -0 -0 -0 -0 -0 -0 -0 -0 -0 -0 -0 -0 -0 -0 -0 -11 -0
-0 -0 -0 -0 -0 -0 -0 -1 -0 -0 -0 -0 -0 -0 -0 -0 -0 -0 -0 -0 -0 -0 -0 -0 -0 -0 -0 -0 -0 -0 -0 -0 -0 -0 -0 -0 -0 -0 -9 -0 -0 -0 -0
-0 -0 -0 -0 -0 -0 -0 -0 -0 -0 -0 -0 -0 -0 -0 -0 -0 -0 -0 -0 -0 -0 -0 -0 -0 -0 -0 -0 -0 -0 -0 -0 -0 -0 -0 -0 -0 -0 -0 -0 -0 -1 -1
-0 -0 -0 -0 -0 -0 -0 -0 -0 -0 -0 -0 -0 -0 -0 -0 -0 -0 -0 -0 -0 -0 -0 -0 -0 -0 -0 -0 -0 -0 -0 -0 -0 -0 -0 -0 -0 -0 -0 -0 -0 -0 -1
-0 -0 -0 -0 -0 -0 -0 -0 -0 -0 -0 -0 -0 -0 -0 -0 -0 -0 -0 -0 -0 -0 -0 -0 -0 -0 -0 -0 -0 -0 -0 -0 -0 -0 -0 -0 -0 -1 -0 -0 -1 -0 -3
-0 -0 -0 -0 -0 -0 -0 -0 -0 -0 -0 -2 -0 -0 -0 -0 -0 -0 -0 -0 -0 -3 -4 -0 -0 -0 -0 -0 -0 -0 -0 -0 -0 -0 -0 -0 -0 -1 -0 -0 -0 -0 -0
-0 -0 -0 -0 -0 -0 -0 -0 -0 -0 -0 -0 -0 -0 -0 -0 -0 -0 -1 -0 -0 -0 -0 -0 -1 -0 -0 -0 -0 -0 -0 -0 -5 -3 -2 -1 -0 -0 -0 -0 -0 -0 -0
-0 -0 -0 -0 -0 -0 -0 -0 -0 -0 -0 -0 -0 -0 -0 -0 -0 -0 -3 -0 -0 -0 -0 -0 -0 -0 -0 -0 -0 -0 -0 -0 -0 -0 -0 -0 -0 -0 -0 -0 -0 -0 -0
-0 -0 -0 -0 -0 -0 -0 -0 -0 -0 -0 -0 -0 -0 -0 -0 -0 -0 -0 -0 -0 -0 -0 -0 -1 -0 -1 -0 -0 -0 -0 -0 -0 -0 -0 -0 -0 -0 -0 -0 -0 -0 -0
-0 -0 -0 -0 -0 -0 -0 -0 -0 -0 -0 -0 -0 -0 -0 -0 -0 -0 -0 -0 -0 -0 -0 -0 -0 -0 -0 -0 -0 -0 -0 -0 -0 -0 -0 -0 -0 -0 -0 -0 -0 -0 -0
-0 -0 -0 -0 -0 -0 -0 -14 -0 -0 -0 -0 -0 -0 -0 -0 -0 -0 -0 -0 -0 -0 -0 -0 -1 -0 -0 -0 -0 -0 -0 -0 -0 -0 -0 -0 -0 -0 -0 -0 -0 -0 -0
-0 -0 -0 -0 -0 -0 -0 -7 -0 -0 -0 -0 -0 -0 -0 -0 -0 -0 -0 -0 -0 -0 -0 -0 -0 -0 -0 -0 -0 -0 -0 -0 -0 -0 -0 -0 -0 -0 -0 -0 -0 -1 -0
Wind_Speed
20 22 21 19 18 16 16 17 16 18 17 17 19 13 13 11 13 12 9 13 13 8 5 10 10 8 5 4 4 3 4 3 4 2 2 2 3 4 4 4 6 6 7
19 16 19 22 21 20 19 19 18 19 20 19 22 12 14 16 15 15 13 14 10 13 12 9 13 9 8 6 4 6 4 4 4 3 2 2 2 2 4 4 3 4 6
20 21 20 18 19 24 24 23 21 20 20 21 21 16 15 15 15 17 17 19 18 18 16 12 10 11 7 5 5 6 4 3 3 3 2 1 1 2 3 3 4 4 6
18 21 21 22 19 20 23 25 22 21 21 21 20 20 15 17 17 14 16 19 19 14 10 9 11 10 11 10 7 7 5 5 4 3 2 1 1 2 1 2 4 2 5
18 19 20 21 20 20 21 24 21 23 21 20 20 16 15 17 15 20 18 16 16 12 8 7 8 9 13 10 6 6 6 4 3 2 2 1 2 2 2 1 3 3 4
19 19 22 20 20 20 22 23 23 22 23 20 22 17 16 13 17 21 20 17 12 15 11 6 6 11 10 12 12 14 10 6 5 3 3 2 3 3 2 1 2 2 3
19 20 21 22 22 22 23 24 21 22 19 20 20 16 17 14 22 20 19 12 14 12 11 9 7 6 7 6 9 11 11 10 7 6 4 4 3 5 2 2 2 2 3
19 20 22 22 21 23 24 25 24 16 16 14 12 10 11 11 24 21 20 14 11 9 9 8 9 7 5 6 5 5 4 2 1 3 4 3 4 3 3 4 3 4 4
20 21 20 22 22 24 25 27 19 11 8 8 5 6 18 12 26 29 20 16 14 11 10 10 9 8 12 10 5 5 5 3 6 9 5 3 2 4 5 2 3 2 2
16 16 18 21 21 23 23 25 15 14 15 12 14 14 18 20 27 24 20 12 14 10 12 13 16 12 13 12 5 5 3 1 1 3 3 3 4 5 8 5 3 3 2
13 14 14 20 20 23 22 19 21 18 17 17 14 18 21 21 25 25 27 14 10 10 9 7 6 12 9 5 4 2 2 2 2 1 3 2 2 4 4 3 4 4 2
11 13 14 13 16 16 21 19 19 17 16 18 13 13 16 16 23 28 23 23 18 11 8 5 4 7 6 5 2 4 5 3 1 0 1 2 2 3 4 4 5 4 4
12 13 13 10 12 15 14 16 12 13 12 13 9 9 9 10 9 25 24 20 20 11 6 5 3 4 3 3 2 2 7 3 2 1 1 1 1 3 4 4 3 5 6
13 12 11 10 7 10 9 9 9 9 9 8 7 7 9 11 11 9 8 8 13 8 8 5 3 2 3 3 4 4 3 3 1 1 0 1 2 2 3 2 3 3 2
11 12 12 9 7 4 6 8 7 10 11 8 8 9 10 12 9 9 9 7 6 6 6 4 3 3 3 4 3 3 3 1 0 0 1 2 2 2 2 3 2 3 2
10 9 9 9 9 6 3 3 9 11 15 15 16 11 8 15 17 16 15 13 12 7 4 2 4 5 5 4 3 2 1 1 2 1 2 2 2 2 3 3 3 3 3
9 10 8 10 9 9 8 5 4 5 11 14 15 15 16 16 18 19 18 12 13 10 6 6 6 5 4 3 2 2 2 2 3 2 2 3 3 2 3 3 4 3 3
7 12 6 6 7 8 9 7 6 6 8 9 11 14 17 17 17 17 16 13 9 8 5 4 4 4 3 3 2 2 2 3 3 3 3 3 2 2 3 3 3 4 4
6 5 5 5 6 8 7 7 6 6 6 5 5 7 10 15 17 14 11 5 4 4 4 3 3 3 3 3 3 3 2 2 3 3 3 3 2 2 3 3 4 6 3
5 12 8 4 5 6 6 5 6 6 6 5 6 5 6 5 4 4 3 3 3 4 4 5 4 4 4 4 4 4 3 3 3 3 3 3 3 3 4 4 3 3 4
4 5 7 4 4 4 4 5 5 5 5 5 6 6 9 5 6 5 5 6 5 4 5 5 6 6 5 4 4 3 4 5 4 4 3 3 4 4 3 4 5 2 4
3 4 4 4 4 5 4 4 4 4 4 5 5 5 8 3 3 3 5 4 4 4 4 5 5 5 6 6 5 4 4 5 5 4 4 4 4 4 4 5 4 4 4
3 4 4 4 4 5 4 4 4 4 4 5 6 6 6 5 5 5 5 5 5 5 5 6 5 6 5 5 5 6 6 5 4 4 5 5 3 3 4 4 5 3 3
2 2 4 4 4 4 5 3 5 4 3 4 4 4 4 6 7 6 5 5 4 7 6 5 5 8 7 6 7 6 4 5 5 5 7 6 3 3 5 4 4 3 3
3 3 4 4 4 4 6 5 7 7 7 8 8 8 8 7 8 8 7 7 6 8 9 8 7 8 9 11 11 10 8 7 8 8 5 5 5 5 4 5 4 3 4
2 1 2 3 4 4 5 5 7 6 6 8 7 7 7 8 8 8 8 8 8 9 10 8 9 11 12 10 11 10 8 8 8 8 6 5 5 4 5 7 10 4 5
Wind_Direction
323 323 320 320 318 310 302 297 295 297 294 286 282 236 212 178 167 172 161 145 142 224 233 175 136 142 132 133 126 113 109 115 131 277 237 311 13 1 5 10 351 4 338
328 315 309 311 318 315 308 302 298 295 294 289 291 227 212 211 199 181 158 143 166 205 210 213 149 146 141 150 140 126 124 107 119 178 318 327 4 353 323 353 354 357 325
328 326 320 315 312 316 310 306 298 293 286 287 287 246 199 193 192 199 175 175 183 198 197 184 152 138 146 149 140 125 123 107 107 123 226 296 295 357 342 338 334 328 318
325 326 321 320 315 310 304 302 295 287 282 283 284 253 198 186 168 169 170 183 174 199 184 163 156 160 164 153 140 139 131 124 117 121 136 294 290 310 307 313 326 317 304
328 325 324 319 316 311 305 299 290 286 278 271 278 236 192 181 172 172 172 184 166 167 155 157 141 157 162 148 136 134 130 120 116 106 113 122 264 280 242 255 265 284 299
334 330 333 329 322 320 311 301 291 281 276 266 268 211 185 180 174 170 173 159 176 153 152 142 140 153 150 144 137 149 153 145 147 159 159 184 249 235 218 224 261 347 348
338 336 335 334 331 328 318 309 294 276 262 257 256 197 189 176 151 157 154 151 154 146 141 134 132 145 144 134 140 157 171 166 149 159 173 203 222 221 171 293 281 237 225
341 339 344 340 337 334 330 323 312 267 248 245 216 162 144 136 131 133 133 127 114 109 116 116 100 86 65 120 136 154 158 139 163 175 197 225 223 214 192 198 230 280 287
344 345 343 348 346 343 339 336 345 6 36 55 76 139 126 113 121 120 116 106 97 84 75 76 91 80 55 73 99 114 93 89 81 74 73 54 354 290 251 163 279 295 313
329 339 343 351 357 351 348 352 4 24 33 47 64 75 67 84 72 85 100 103 97 92 89 65 69 71 63 58 74 81 105 117 40 345 337 332 324 303 293 237 195 238 251
316 327 341 -0 4 6 357 1 8 26 41 35 36 56 66 52 67 62 75 78 82 87 78 84 60 54 51 59 95 120 192 152 324 305 302 304 328 324 313 290 238 194 246
324 331 352 6 7 5 3 4 16 15 23 44 0 11 55 56 54 67 70 81 80 83 81 74 42 23 359 332 253 214 213 158 127 311 283 332 357 317 306 296 288 271 235
344 345 347 5 15 7 7 360 8 13 20 24 357 15 21 49 47 63 59 68 72 70 70 55 15 325 302 252 236 185 118 120 152 183 301 12 297 280 281 283 292 287 271
348 349 351 354 17 21 11 12 13 13 20 26 11 6 16 38 37 27 45 57 64 69 58 51 17 321 245 170 99 99 132 128 141 189 45 328 305 315 302 318 291 284 270
350 355 0 2 358 29 33 22 27 32 30 28 18 18 22 33 24 39 45 41 53 50 57 46 34 41 23 52 68 60 46 311 318 6 33 329 290 269 269 282 259 288 276
356 357 1 3 6 9 356 24 30 35 31 24 25 30 21 36 33 36 44 51 63 67 75 62 43 40 36 22 23 9 270 297 298 301 286 262 267 292 307 302 281 294 303
352 358 356 6 4 0 10 15 27 9 30 30 24 25 32 30 33 31 32 33 36 31 39 31 36 21 20 356 5 5 330 324 327 297 287 283 281 272 293 299 302 299 300
352 0 356 355 360 2 4 12 24 34 25 13 4 13 15 20 21 28 20 19 24 26 19 21 13 357 347 322 321 308 319 335 339 320 293 276 281 284 305 295 299 289 299
359 2 354 359 4 12 10 9 11 6 357 2 349 2 2 5 19 14 11 26 11 358 348 355 332 316 300 297 297 298 304 309 317 318 303 294 310 301 293 284 301 291 261
359 6 10 5 6 8 6 18 11 2 359 348 356 345 343 2 15 355 355 9 4 339 335 322 318 308 308 304 300 302 309 293 275 266 287 308 300 277 289 306 306 306 299
357 355 349 350 356 345 4 0 353 357 356 342 342 341 345 3 340 344 344 349 336 324 322 330 336 311 301 281 275 291 308 291 274 273 280 285 305 295 285 289 296 291 281
15 359 344 344 332 334 338 356 350 348 344 344 332 315 330 341 331 314 318 306 287 286 292 284 275 292 307 303 295 301 285 275 280 282 271 259 257 297 311 299 285 273 315
4 8 358 334 322 320 324 319 331 334 328 320 318 325 331 333 327 316 305 292 288 290 297 312 312 289 272 294 300 274 260 269 286 281 281 277 246 249 266 277 291 312 320
286 352 352 345 348 343 336 337 352 342 319 337 319 313 304 320 330 316 299 296 292 319 296 290 287 296 293 291 285 286 285 277 272 280 292 288 257 261 281 279 268 269 288
294 1 359 352 344 338 333 339 357 342 336 342 339 336 333 333 327 322 317 314 315 326 322 319 305 288 285 294 294 285 276 268 268 274 256 251 258 256 254 279 280 271 276
281 349 339 342 340 333 331 334 347 331 331 332 328 321 319 318 317 317 319 320 319 319 314 306 297 304 298 291 287 289 286 275 268 262 249 236 238 232 240 250 252 245 248